DLH11N EKCH-EDDH

Flight info

Callsign DLH11N
Flight time N/A
Altitude 24000
Route NEXEN T503 MICOS/N0459F280 N850 BOGMU BOGMU5A
Aircraft A320/M-SDE3FGHIRWY/LB1

Departure

Time 2026-04-30 17:49
Airport Copenhagen Kastrup Airport (EKCH)

Arrival

Time N/A
Airport Hamburg Helmut Schmidt Airport (EDDH)
Time Latitude Longitude Altitude Speed Heading
2026-04-30 17:39 55.62613 12.65173 21 ft 5 kts 175°
2026-04-30 17:41 55.62140 12.65098 25 ft 8 kts 210°
2026-04-30 17:42 55.62099 12.65056 25 ft 9 kts 211°
2026-04-30 17:42 55.61869 12.64786 17 ft 15 kts 214°
2026-04-30 17:43 55.61711 12.64599 21 ft 13 kts 214°
2026-04-30 17:44 55.61475 12.64337 20 ft 17 kts 213°
2026-04-30 17:44 55.61161 12.63966 20 ft 17 kts 212°
2026-04-30 17:46 55.60768 12.63634 23 ft 10 kts 143°
2026-04-30 17:47 55.60736 12.63691 24 ft 0 kts 130°
2026-04-30 17:48 55.60719 12.63938 30 ft 8 kts 47°
2026-04-30 17:48 55.62124 12.66113 93 ft 165 kts 41°
2026-04-30 17:49 55.65651 12.71709 2197 ft 202 kts 42°
2026-04-30 17:50 55.67909 12.81736 4505 ft 281 kts 122°
2026-04-30 17:51 55.62629 12.83182 7032 ft 291 kts 215°
2026-04-30 17:52 55.58103 12.75811 9420 ft 302 kts 227°
2026-04-30 17:53 55.49411 12.62034 11320 ft 390 kts 221°
2026-04-30 17:54 55.40718 12.49199 13394 ft 419 kts 220°
2026-04-30 17:55 55.31632 12.35785 15716 ft 434 kts 220°
2026-04-30 17:56 55.22257 12.21995 17803 ft 448 kts 220°
2026-04-30 17:57 55.14990 12.11386 19185 ft 458 kts 220°
2026-04-30 17:58 55.07579 12.00595 20435 ft 467 kts 220°
2026-04-30 17:59 54.97531 11.86081 21981 ft 474 kts 220°
2026-04-30 18:00 54.87246 11.71314 23245 ft 484 kts 220°
2026-04-30 18:00 54.79367 11.60165 24123 ft 491 kts 218°
2026-04-30 18:01 54.73875 11.53194 24445 ft 497 kts 215°
2026-04-30 18:02 54.65240 11.42818 24439 ft 506 kts 215°
2026-04-30 18:02 54.56643 11.32211 24344 ft 509 kts 216°
2026-04-30 18:03 54.48058 11.21635 23595 ft 506 kts 215°
2026-04-30 18:04 54.39459 11.11261 22844 ft 501 kts 215°
2026-04-30 18:05 54.28729 10.96480 21836 ft 488 kts 232°
2026-04-30 18:06 54.20983 10.79305 20848 ft 437 kts 233°
2026-04-30 18:07 54.13680 10.63240 19319 ft 420 kts 233°
2026-04-30 18:08 54.06969 10.54270 18309 ft 416 kts 199°
2026-04-30 18:09 53.96201 10.47382 17306 ft 411 kts 198°
2026-04-30 18:10 53.85579 10.40673 15788 ft 408 kts 198°
2026-04-30 18:11 53.74960 10.33965 13284 ft 405 kts 198°
2026-04-30 18:11 53.67361 10.28064 11564 ft 397 kts 215°
2026-04-30 18:12 53.61898 10.18400 11404 ft 377 kts 230°
2026-04-30 18:13 53.58608 10.11750 10894 ft 359 kts 230°
2026-04-30 18:13 53.54001 10.02446 10255 ft 329 kts 230°
2026-04-30 18:14 53.51181 9.96746 10022 ft 306 kts 230°
2026-04-30 18:15 53.47305 9.88924 9632 ft 276 kts 229°
2026-04-30 18:15 53.43724 9.81715 8737 ft 267 kts 229°
2026-04-30 18:16 53.41374 9.76966 8077 ft 262 kts 229°
2026-04-30 18:16 53.39060 9.72293 7404 ft 259 kts 229°
2026-04-30 18:17 53.37914 9.69982 7067 ft 257 kts 229°
2026-04-30 18:17 53.36779 9.67689 6731 ft 254 kts 229°
2026-04-30 18:17 53.35446 9.62461 6030 ft 249 kts 278°
2026-04-30 18:18 53.36041 9.59814 5665 ft 242 kts 310°
2026-04-30 18:18 53.37310 9.58145 5317 ft 234 kts 342°
2026-04-30 18:18 53.38877 9.57886 5027 ft 224 kts 16°
2026-04-30 18:18 53.40245 9.59086 5008 ft 225 kts 40°
2026-04-30 18:19 53.41428 9.60810 5008 ft 227 kts 44°
2026-04-30 18:19 53.42584 9.62606 5015 ft 224 kts 44°
2026-04-30 18:19 53.43688 9.64341 4947 ft 213 kts 44°
2026-04-30 18:19 53.44761 9.66034 4678 ft 211 kts 44°
2026-04-30 18:20 53.45829 9.67732 4384 ft 211 kts 44°
2026-04-30 18:20 53.46891 9.69429 4097 ft 211 kts 44°
2026-04-30 18:20 53.47923 9.71090 3899 ft 206 kts 44°
2026-04-30 18:20 53.48947 9.72751 3654 ft 204 kts 44°
2026-04-30 18:21 53.49964 9.74412 3392 ft 203 kts 44°
2026-04-30 18:21 53.50945 9.76025 3299 ft 192 kts 44°
2026-04-30 18:21 53.51870 9.77555 3127 ft 184 kts 44°
2026-04-30 18:21 53.52777 9.79060 3029 ft 183 kts 44°
2026-04-30 18:22 53.53658 9.80624 2783 ft 186 kts 48°
2026-04-30 18:22 53.55446 9.83710 2460 ft 188 kts 46°
2026-04-30 18:22 53.56314 9.85414 1951 ft 196 kts 52°
2026-04-30 18:23 53.57129 9.87246 1529 ft 199 kts 54°
2026-04-30 18:23 53.57929 9.89091 1322 ft 186 kts 52°
2026-04-30 18:23 53.58800 9.90657 1074 ft 179 kts 45°
2026-04-30 18:23 53.59659 9.92128 780 ft 174 kts 49°
2026-04-30 18:24 53.61317 9.95528 655 ft 205 kts 52°
2026-04-30 18:24 53.62299 9.97599 605 ft 250 kts 51°
2026-04-30 18:24 53.63496 10.00093 644 ft 294 kts 51°
2026-04-30 18:25 53.64776 10.02760 1766 ft 289 kts 51°
2026-04-30 18:25 53.67435 10.08324 2821 ft 315 kts 51°
2026-04-30 18:25 53.68300 10.10167 2954 ft 294 kts 51°